Torna al catalogo

OPS 1948

AttivoMilitareMEO
NORAD 11558·PAYLOAD·🇺🇸 United States

Lanciato Oct 1, 1979 da Cape Canaveral Space Force Station

Loading…

Prossimi Passaggi (prossime 24 ore)

TLE

AggiornatoSource: Space-Track

Epoca: Sep 14, 2026, 13:54 UTC

1 11558U 79086A   26257.57917436 -.00000038  00000-0  00000-0 0  9996
2 11558   6.0964  12.4262 1310555  78.6326 120.3867  1.00209444 27107

Traccia OPS 1948 in tempo reale con AllMySat

Download on the App Store